Theta_e
308 308 307 306 305 304 303 303 302 305 305 304 305 305 305 305 305 307 308 309 308 309 309 308 309 310 311 310 309 309 311 311
307 306 305 304 303 303 302 302 304 304 304 303 303 303 305 304 307 306 308 308 308 308 307 306 307 308 307 307 308 310 311 310
305 304 303 302 302 302 303 303 304 303 303 302 302 303 306 305 305 305 307 306 306 306 305 305 305 307 305 305 308 309 308 307
304 303 302 300 300 301 302 303 303 303 301 301 302 303 303 302 302 303 304 305 305 306 306 306 305 303 302 304 307 306 306 307
302 301 300 300 299 302 301 303 303 302 301 301 302 303 302 303 304 304 305 308 307 307 307 306 306 304 300 299 301 308 307 308
300 300 300 300 301 301 302 302 302 301 300 301 302 302 303 304 305 306 308 310 309 308 308 308 307 304 299 298 299 308 309 308
300 300 299 301 301 301 301 301 302 300 301 302 303 304 304 304 306 308 310 311 310 310 311 306 307 303 297 297 299 307 308 306
299 299 300 301 301 302 301 301 301 301 302 303 304 305 307 308 310 311 312 311 311 307 309 308 304 305 297 296 297 304 304 303
300 299 299 300 302 302 300 301 300 303 305 305 306 308 310 310 310 310 313 313 313 312 311 311 308 302 303 296 296 302 301 303
299 299 299 301 302 302 300 301 303 305 306 306 307 307 308 308 307 305 306 305 308 307 311 305 304 303 298 298 297 297 298 302
300 300 300 302 303 303 302 304 306 306 306 307 307 306 305 307 303 301 299 299 300 302 300 300 301 300 299 298 298 299 300 302
300 301 300 301 303 304 306 307 307 307 307 308 308 306 304 304 302 301 298 295 296 296 299 298 297 298 297 297 297 298 299 300
302 301 301 302 304 305 307 307 309 307 308 309 310 308 306 303 303 302 301 296 293 296 295 298 295 294 295 292 293 295 296 295
304 304 304 305 305 305 306 307 307 308 308 305 305 308 307 308 305 299 291 292 290 290 290 293 298 293 293 293 294 293 292 292
305 305 305 305 304 304 305 306 307 307 307 308 307 306 306 308 307 307 301 294 292 291 290 290 291 292 292 293 292 292 292 293
305 305 304 304 303 303 305 307 308 308 309 298 304 308 307 305 306 307 305 304 301 298 292 291 292 291 292 292 291 293 301 300
305 304 303 303 303 304 307 309 306 306 303 304 306 306 307 304 304 305 303 304 304 302 301 296 299 293 292 292 292 301 300 299
304 304 305 305 305 306 307 308 309 310 306 299 298 304 305 305 304 303 303 304 304 303 300 300 302 300 302 302 302 301 300 299
307 307 307 307 306 307 307 308 311 309 307 308 302 303 304 303 303 304 304 303 302 302 302 300 289 299 301 301 301 300 300 299
307 306 308 308 307 307 311 308 310 308 307 304 304 304 304 303 304 304 303 302 302 302 302 301 289 301 302 301 301 301 301 301
Wind_Speed
6 9 11 12 11 11 11 11 10 9 11 12 11 11 9 10 10 11 8 10 11 8 8 9 10 9 6 8 8 9 7 10
8 10 11 11 10 10 10 9 9 11 9 11 11 14 8 8 9 8 9 9 13 13 13 13 12 12 10 11 10 10 8 10
11 10 9 9 10 9 8 9 10 10 11 11 11 8 11 12 12 11 12 12 11 12 10 11 11 11 9 9 10 10 9 9
10 9 9 8 7 8 8 9 9 8 10 8 9 10 10 9 9 10 9 7 8 8 8 10 11 10 15 16 10 7 7 5
6 8 7 6 7 8 8 8 9 9 7 7 8 8 8 8 8 8 8 7 7 7 8 9 9 9 12 13 15 4 4 2
7 5 6 5 6 7 7 6 8 6 6 6 7 8 8 7 7 5 5 4 4 4 5 6 6 7 12 12 13 4 4 3
5 6 5 5 5 6 5 6 7 7 6 7 6 6 6 5 6 7 7 5 4 3 4 7 8 7 12 14 13 6 3 8
5 4 3 3 5 5 4 5 6 6 5 4 4 5 7 5 6 4 4 5 3 3 1 5 6 5 11 16 16 9 9 5
3 3 3 4 3 3 3 4 5 2 4 4 5 3 4 5 6 7 4 4 1 2 3 4 5 6 7 12 14 8 7 6
5 4 4 3 2 1 3 4 1 1 2 4 5 3 5 6 10 11 11 12 7 7 5 5 7 9 11 14 14 10 11 7
4 4 4 3 2 3 5 3 4 2 5 6 8 7 8 8 8 10 9 10 9 9 8 9 6 7 8 14 16 15 11 7
3 5 7 6 1 1 1 2 3 6 2 3 5 5 5 6 5 5 6 6 6 7 7 6 8 7 6 7 8 9 11 11
5 5 6 5 4 2 2 1 2 4 3 4 0 5 6 4 3 3 4 3 2 4 4 5 5 6 6 8 8 8 9 10
8 8 6 5 3 5 5 5 5 7 3 3 3 3 3 2 6 4 5 3 3 7 4 2 1 5 9 12 13 15 19 17
7 7 7 5 4 4 3 2 3 4 3 5 4 3 5 2 3 2 4 4 7 8 10 8 7 9 13 14 16 15 15 9
7 7 6 5 4 3 1 3 3 5 1 6 5 2 3 5 4 3 3 2 3 6 9 10 10 11 12 15 15 16 7 8
7 6 6 5 5 3 2 3 2 3 5 5 6 7 0 4 5 4 4 3 3 3 5 2 7 9 12 14 14 6 8 8
7 5 4 3 3 3 1 3 3 4 4 5 6 6 4 5 4 5 5 4 3 3 5 5 5 9 6 7 7 7 8 8
6 5 3 4 3 2 2 1 4 5 3 5 7 6 4 5 7 5 4 4 4 5 4 2 4 3 5 7 7 7 7 8
6 5 4 4 4 2 8 1 4 6 8 2 4 4 3 4 3 6 6 7 7 4 5 3 4 3 6 6 6 6 7 7
Wind_Direction
7 35 38 37 18 20 7 6 3 15 14 3 357 348 0 0 5 349 344 349 334 356 347 350 346 344 342 2 348 334 349 27
35 39 32 24 13 16 5 4 20 14 9 5 352 348 20 356 357 351 349 351 11 14 15 2 355 340 18 359 345 9 50 53
48 36 27 23 10 8 360 5 19 8 12 3 354 341 15 13 11 1 17 26 21 18 17 22 16 24 20 11 23 27 33 39
30 23 25 9 3 1 355 6 6 19 10 5 357 2 19 14 9 16 16 6 22 28 17 30 44 38 13 10 24 52 57 42
15 31 32 358 356 351 356 356 7 15 18 9 9 11 21 16 18 22 10 23 49 25 29 41 40 21 2 354 350 346 41 56
30 30 8 360 351 356 355 349 15 21 18 14 22 16 13 12 24 4 9 26 54 51 29 45 41 25 355 343 335 291 299 89
47 29 355 345 351 355 337 2 27 25 23 18 24 11 28 8 357 351 352 17 9 25 54 43 32 17 355 347 346 328 308 100
29 18 334 341 19 350 8 14 42 30 36 14 358 340 328 341 321 339 305 302 288 281 358 66 49 31 10 359 0 15 17 38
46 50 22 18 353 359 32 28 49 6 358 344 316 303 359 335 317 302 339 319 22 14 103 138 100 39 19 359 354 353 360 344
57 51 59 49 11 5 91 90 93 247 274 245 271 337 357 39 23 7 13 359 11 14 36 63 58 32 25 4 339 324 328 325
67 65 89 74 94 119 115 124 191 189 267 53 59 42 18 4 61 27 15 5 6 11 16 12 32 37 11 358 350 346 337 339
83 95 104 113 128 59 131 196 247 266 57 109 129 106 76 35 32 69 36 18 9 17 1 22 2 11 5 346 342 334 336 335
156 128 116 134 187 214 263 120 131 99 17 339 91 159 144 142 103 21 74 49 5 21 4 1 1 349 334 309 302 314 313 307
163 151 152 179 177 72 57 48 37 0 12 70 353 2 10 18 165 149 34 72 282 299 254 63 338 257 297 302 300 312 314 316
144 125 117 119 124 108 81 41 39 83 349 324 348 352 358 345 336 145 173 230 261 274 281 277 257 274 300 305 312 329 301 312
147 144 139 140 131 112 35 341 19 349 301 250 305 23 10 328 336 349 39 176 189 198 238 245 264 263 284 298 312 322 13 19
154 151 156 170 154 140 49 312 338 56 7 5 335 319 68 280 301 348 26 29 8 58 47 291 285 261 249 276 288 358 8 20
171 169 151 115 81 63 36 294 308 279 152 252 264 292 307 355 0 359 5 351 356 40 83 19 347 343 346 24 19 16 14 16
146 150 115 88 76 59 135 264 290 302 272 195 242 285 11 33 346 346 344 349 5 6 99 126 271 311 334 22 23 8 18 15
161 161 152 119 85 322 301 21 352 312 299 11 301 310 27 14 342 308 13 354 351 15 9 152 282 309 24 19 18 15 14 23